sat.trackr.live / text

‹ back to catalog

STARLINK-32534

NORAD 62175 · 2024-225N

PAYLOAD ACTIVE UNKNOWN

§ Identity

Operator
Country
US
Launch date
2024-11-30
Launch site
AFWTR
Launch vehicle
Mass (kg)
RCS (m²)

Purposes: comms

External: N2YO · Heavens-Above · Gunter

§ Orbital elements

Epoch: 2026-05-24T22:42:36.552960Z

Period
96.11 min
Inclination
70.0014°
Eccentricity
0.0002661
Mean motion
14.98337921 rev/d
Perigee alt
570.2 km
Apogee alt
573.9 km
Semi-major
6,950.2 km
B*
2.6058e-4
RAAN
332.3418°
Arg perigee
266.7221°
Mean anomaly
93.3633°
Rev number
8,129

§ Raw data

STARLINK-325341 62175U 24225N   26144.94625640  .00003018  00000+0  26058-3 0  99942 62175  70.0014 332.3418 0002661 266.7221  93.3633 14.98337921 81294

JSON: /api/v1/satellites/62175 · /tle

For live sub-satellite position, see the globe view (requires WebGL).

§ Visibility from observer

Set your observer location to see the next 7 days of passes ≥ 10°. The values pass through the URL so the page stays shareable.

No JS? Fill the form by hand. The geolocation button needs JavaScript.